Waarnemingen

Advertentie
Mijn weer
F16-A, Nederland (6206): temperatuur & dauwpunt: 13.07.2018 21:00:00 - 19.07.2018 21:00:00 (CEST)F16-A, Nederland (6206): windsnelheid & windstoten: 13.07.2018 21:00:00 - 19.07.2018 21:00:00 (CEST)F16-A, Nederland (6206): windrichting: 13.07.2018 21:00:00 - 19.07.2018 21:00:00 (CEST)F16-A, Nederland (6206): luchtdruk: 13.07.2018 21:00:00 - 19.07.2018 21:00:00 (CEST)F16-A, Nederland (6206): zicht: 13.07.2018 21:00:00 - 19.07.2018 21:00:00 (CEST)
Datum & Tijd tt [°C] td [°C] ff [km/u] ff [kn] fx [km/u] fx [kn] dd ppp [hPa] vv [km]
19.07.2018 21:00:00 17,7 12,8 5 3 11 6 O 1019,3 10
19.07.2018 20:00:00 17,6 12,9 9 5 11 6 ONO 1019,4 10
19.07.2018 19:00:00 17,7 12,8 8 4 11 6 ONO 1019,7 10
19.07.2018 18:00:00 17,8 12,9 8 4 11 6 O 1019,9 10
19.07.2018 17:00:00 17,7 11,9 11 6 14 8 ONO 1020,3 10
19.07.2018 16:00:00 17,6 12,5 11 6 14 8 ONO 1020,5 10
19.07.2018 15:00:00 17,5 12,7 13 7 14 8 ONO 1020,5 10
19.07.2018 14:00:00 17,5 12,8 13 7 14 8 ONO 1020,8 10
19.07.2018 13:00:00 17,4 13,0 13 7 18 10 ONO 1020,8 10
19.07.2018 12:00:00 17,4 13,4 15 8 18 10 ONO 1020,7 10
19.07.2018 11:00:00 17,5 12,9 15 8 18 10 ONO 1020,6 10
19.07.2018 10:00:00 17,5 13,0 16 9 18 10 NO 1020,5 10
19.07.2018 09:00:00 17,8 13,0 15 8 18 10 NO 1020,4 10
19.07.2018 08:00:00 17,4 12,8 16 9 18 10 NO 1020,4 10
19.07.2018 07:00:00 17,3 13,0 16 9 18 10 NO 1020,2 10
19.07.2018 06:00:00 17,0 12,4 13 7 14 8 NO 1020,2 10
19.07.2018 05:00:00 17,0 12,4 13 7 14 8 NO 1020,2 10
19.07.2018 04:00:00 17,1 12,3 13 7 14 8 NO 1020,2 10
19.07.2018 03:00:00 17,1 13,0 13 7 14 8 NNO 1020,3 10
19.07.2018 02:00:00 17,1 13,9 13 7 14 8 NNO 1020,2 10
19.07.2018 01:00:00 17,3 13,8 15 8 14 8 NNO 1020,2 10
19.07.2018 00:00:00 17,3 13,9 15 8 14 8 NNO 1020,2 10
18.07.2018 23:00:00 17,4 13,7 13 7 14 8 N 1020,0 10
18.07.2018 22:00:00 17,5 13,5 15 8 18 10 N 1019,8 10
18.07.2018 21:00:00 18,1 12,9 16 9 18 10 N 1019,6 10
18.07.2018 20:00:00 18,5 12,5 15 8 14 8 NNW 1019,5 10
18.07.2018 19:00:00 18,6 14,8 13 7 14 8 N 1019,4 10
18.07.2018 18:00:00 18,8 15,1 11 6 18 10 NNW 1019,3 10
18.07.2018 17:00:00 18,7 15,3 11 6 22 12 - 1019,3 10
18.07.2018 16:00:00 18,6 15,6 4 2 7 4 - 1019,3 10
18.07.2018 15:00:00 18,1 15,7 8 4 14 8 Z 1019,0 10
18.07.2018 14:00:00 17,9 15,5 13 7 14 8 Z 1018,9 10
18.07.2018 13:00:00 17,8 14,3 15 8 18 10 Z 1018,8 10
18.07.2018 12:00:00 17,9 13,9 16 9 18 10 Z 1018,5 10
18.07.2018 11:00:00 17,7 13,4 13 7 14 8 Z 1018,4 10
18.07.2018 10:00:00 17,6 12,9 11 6 11 6 Z 1018,2 10
18.07.2018 09:00:00 17,5 12,7 5 3 7 4 Z 1018,0 10
18.07.2018 08:00:00 17,3 12,8 4 2 11 6 - 1017,8 10
18.07.2018 07:00:00 17,3 12,7 4 2 7 4 - 1017,4 10
18.07.2018 06:00:00 17,1 12,5 8 4 11 6 WZW 1017,0 10
18.07.2018 05:00:00 16,8 12,9 11 6 14 8 WZW 1017,1 10
18.07.2018 04:00:00 16,7 14,1 15 8 14 8 WZW 1016,9 10
18.07.2018 03:00:00 16,6 14,2 16 9 22 12 W 1016,8 10
18.07.2018 02:00:00 16,8 14,3 18 10 18 10 WZW 1016,7 10
18.07.2018 01:00:00 17,1 13,8 16 9 18 10 W 1016,6 10
18.07.2018 00:00:00 17,2 13,9 21 11 22 12 W 1016,4 10
17.07.2018 23:00:00 17,2 13,9 24 13 22 12 W 1016,1 10
17.07.2018 22:00:00 17,5 14,5 28 15 29 16 WNW 1015,5 10
17.07.2018 21:00:00 17,8 15,0 26 14 25 14 W 1015,1 10
17.07.2018 20:00:00 17,7 15,0 26 14 25 14 W 1014,3 10
17.07.2018 19:00:00 17,8 15,4 26 14 25 14 W 1014,1 10
17.07.2018 18:00:00 18,0 15,8 28 15 29 16 W 1013,8 10
17.07.2018 17:00:00 17,6 15,6 26 14 29 16 WZW 1013,5 10
17.07.2018 16:00:00 17,9 15,9 26 14 29 16 WZW 1013,2 10
17.07.2018 15:00:00 17,8 15,3 28 15 32 18 WZW 1012,7 10
17.07.2018 14:00:00 17,4 15,8 29 16 32 18 ZW 1012,3 10
17.07.2018 13:00:00 17,6 16,2 24 13 29 16 ZZW 1012,2 10
17.07.2018 12:00:00 17,8 16,3 26 14 32 18 Z 1011,8 10
17.07.2018 11:00:00 18,0 16,4 37 20 40 21 Z 1011,7 10
17.07.2018 10:00:00 18,6 15,9 35 19 36 19 ZZO 1011,1 10
17.07.2018 09:00:00 19,0 15,2 35 19 32 18 ZZO 1011,3 10
17.07.2018 08:00:00 18,7 16,4 28 15 29 16 Z 1011,3 10
17.07.2018 07:00:00 18,7 17,0 31 17 32 18 ZZO 1011,1 10
17.07.2018 06:00:00 18,8 17,0 37 20 36 19 ZO 1011,2 10
17.07.2018 05:00:00 18,9 16,8 31 17 32 18 ZO 1011,5 10
17.07.2018 04:00:00 18,9 16,3 31 17 40 21 ZO 1012,1 10
17.07.2018 03:00:00 18,8 15,9 29 16 29 16 ZO 1012,6 10
17.07.2018 02:00:00 18,9 15,9 29 16 29 16 ZO 1012,9 10
17.07.2018 01:00:00 18,9 16,1 28 15 25 14 ZO 1013,2 10
17.07.2018 00:00:00 19,0 15,9 28 15 25 14 ZO 1013,4 10
16.07.2018 23:00:00 19,1 15,7 29 16 29 16 ZO 1013,4 10
16.07.2018 22:00:00 19,0 15,9 28 15 25 14 ZO 1013,3 10
16.07.2018 21:00:00 18,9 16,4 28 15 25 14 ZO 1013,2 10
16.07.2018 20:00:00 18,8 16,8 28 15 25 14 ZO 1013,2 10
16.07.2018 19:00:00 18,9 16,7 26 14 25 14 ZO 1013,2 10
16.07.2018 18:00:00 19,0 16,5 26 14 25 14 ZO 1013,6 10
16.07.2018 17:00:00 18,8 16,6 29 16 25 14 ZO 1013,7 10
16.07.2018 16:00:00 18,6 16,7 24 13 25 14 ZO 1014,0 10
16.07.2018 15:00:00 18,6 16,3 24 13 25 14 ZO 1014,4 10
16.07.2018 14:00:00 18,4 16,1 28 15 25 14 ZO 1014,3 10
16.07.2018 13:00:00 18,3 16,0 28 15 32 18 ZO 1014,5 10
16.07.2018 12:00:00 18,3 15,6 35 19 32 18 ZO 1014,5 10
16.07.2018 11:00:00 18,1 15,5 34 18 36 19 ZO 1014,6 10
16.07.2018 10:00:00 18,1 15,4 29 16 29 16 ZO 1014,6 10
16.07.2018 09:00:00 18,1 15,1 31 17 32 18 ZO 1014,7 10
16.07.2018 08:00:00 18,0 14,9 34 18 32 18 ZO 1014,6 10
16.07.2018 07:00:00 17,9 15,6 31 17 32 18 ZO 1014,7 10
16.07.2018 06:00:00 18,0 15,5 34 18 32 18 ZO 1014,8 10
16.07.2018 05:00:00 18,1 15,5 29 16 29 16 ZO 1015,1 10
16.07.2018 04:00:00 18,1 15,0 29 16 29 16 ZO 1015,3 10
16.07.2018 03:00:00 18,3 14,7 28 15 29 16 ZO 1015,8 10
16.07.2018 02:00:00 18,4 14,3 28 15 25 14 ZO 1016,1 10
16.07.2018 01:00:00 18,4 14,8 26 14 25 14 ZO 1016,3 10
16.07.2018 00:00:00 18,3 15,5 28 15 25 14 ZO 1016,6 10
15.07.2018 23:00:00 18,3 15,6 26 14 25 14 ZO 1016,4 10
15.07.2018 22:00:00 18,2 16,5 22 12 22 12 ZO 1016,2 10
15.07.2018 21:00:00 18,2 16,2 18 10 18 10 ZO 1016,1 10
15.07.2018 20:00:00 18,3 15,0 16 9 18 10 ZO 1016,3 10
15.07.2018 19:00:00 18,1 14,4 21 11 18 10 ZO 1016,7 10
15.07.2018 18:00:00 18,1 15,8 21 11 22 12 ZZO 1017,1 10
15.07.2018 17:00:00 18,0 15,5 22 12 22 12 ZZO 1017,4 10
15.07.2018 16:00:00 18,1 14,1 24 13 25 14 Z 1017,5 10
15.07.2018 15:00:00 18,0 14,2 26 14 25 14 Z 1017,8 10
15.07.2018 14:00:00 17,8 14,2 26 14 25 14 Z 1018,1 10
15.07.2018 13:00:00 17,7 14,1 26 14 25 14 Z 1018,3 10
15.07.2018 12:00:00 17,6 14,4 26 14 25 14 Z 1018,4 10
15.07.2018 11:00:00 17,5 14,4 28 15 29 16 Z 1018,4 10
15.07.2018 10:00:00 17,4 14,7 31 17 32 18 Z 1018,3 10
15.07.2018 09:00:00 17,3 15,0 29 16 29 16 Z 1018,1 10
15.07.2018 08:00:00 17,3 14,9 31 17 32 18 Z 1018,3 10
15.07.2018 07:00:00 17,4 14,1 29 16 29 16 Z 1018,2 10
15.07.2018 06:00:00 17,4 14,8 29 16 29 16 Z 1018,2 10
15.07.2018 05:00:00 17,3 14,9 26 14 29 16 Z 1018,3 10
15.07.2018 04:00:00 17,2 14,7 24 13 25 14 Z 1018,6 10
15.07.2018 03:00:00 17,1 15,2 24 13 22 12 Z 1018,8 10
15.07.2018 02:00:00 17,2 14,7 24 13 22 12 Z 1019,0 10
15.07.2018 01:00:00 17,3 14,7 22 12 22 12 Z 1019,2 10
15.07.2018 00:00:00 17,4 14,3 24 13 25 14 Z 1019,3 10
14.07.2018 23:00:00 17,3 14,0 24 13 22 12 Z 1019,3 10
14.07.2018 22:00:00 17,2 13,7 18 10 22 12 Z 1019,4 10
14.07.2018 21:00:00 17,1 13,6 18 10 18 10 Z 1019,5 10
14.07.2018 20:00:00 17,0 13,4 16 9 18 10 Z 1019,8 10
14.07.2018 19:00:00 17,0 13,2 16 9 18 10 ZZW 1020,4 10
14.07.2018 18:00:00 16,8 12,9 15 8 18 10 ZZW 1020,7 10
14.07.2018 17:00:00 16,7 13,2 13 7 14 8 - 1021,0 10
14.07.2018 16:00:00 16,7 13,0 9 5 11 6 ZZW 1021,5 10
14.07.2018 15:00:00 16,5 12,9 11 6 11 6 ZW 1021,7 10
14.07.2018 14:00:00 16,3 13,1 5 3 7 4 ZZW 1021,8 10
14.07.2018 13:00:00 16,3 12,7 4 2 22 12 - 1022,0 10
14.07.2018 12:00:00 16,5 12,9 8 4 14 8 WNW 1021,9 10
14.07.2018 11:00:00 16,5 13,0 11 6 11 6 WNW 1022,2 10
14.07.2018 10:00:00 17,1 12,8 9 5 14 8 WNW 1022,1 10
14.07.2018 09:00:00 17,1 12,8 11 6 14 8 WNW 1022,0 10
14.07.2018 08:00:00 16,3 12,7 9 5 11 6 W 1021,6 10
14.07.2018 07:00:00 16,4 12,0 8 4 25 14 W 1021,6 10
14.07.2018 06:00:00 15,8 12,5 9 5 25 14 NW 1021,5 10
14.07.2018 05:00:00 15,9 12,9 15 8 18 10 NW 1021,6 10
14.07.2018 04:00:00 16,1 13,0 5 3 14 8 W 1021,7 10
14.07.2018 03:00:00 16,0 12,5 8 4 11 6 WNW 1021,9 10
14.07.2018 02:00:00 16,0 12,0 9 5 11 6 WNW 1022,1 10
14.07.2018 01:00:00 16,0 12,5 8 4 18 10 WNW 1022,1 10
14.07.2018 00:00:00 16,1 12,2 11 6 22 12 NW 1022,2 10
13.07.2018 23:00:00 16,2 11,9 9 5 18 10 - 1022,2 10
13.07.2018 22:00:00 16,4 12,0 8 4 11 6 NW 1022,1 10
13.07.2018 21:00:00 16,6 11,7 11 6 14 8 NW 1022,1 10

tt = temperatuur
td = dauwpunt
ff = windsnelheid
fx = windstoten
dd = windrichting
ppp = luchtdruk
vv = zicht

Weerstations in de omgeving